Time,TemperatureF,DewpointF,PressureIn,WindDirection,WindDirectionDegrees,WindSpeedMPH,WindSpeedGustMPH,Humidity,HourlyPrecipIn,Conditions,Clouds,dailyrainin,SoftwareType,DateUTC
2013-09-17 00:14:00,45.0,41.0,30.52,East,79,0.0,0.0,85,0.00,,,0.01,,2013-09-17 04:14:00,
2013-09-17 00:24:00,45.0,41.0,30.53,East,79,0.0,0.0,87,0.00,,,0.01,,2013-09-17 04:24:00,
2013-09-17 00:54:00,44.0,41.0,30.54,East,79,0.0,0.0,88,0.00,,,0.01,,2013-09-17 04:54:00,
2013-09-17 01:12:00,43.0,39.0,30.54,East,79,0.0,0.0,87,0.00,,,0.01,,2013-09-17 05:12:00,
2013-09-17 01:23:00,43.0,39.0,30.55,East,79,0.0,0.0,85,0.00,,,0.01,,2013-09-17 05:23:00,
2013-09-17 01:52:00,42.0,39.0,30.56,East,79,0.0,0.0,88,0.00,,,0.01,,2013-09-17 05:52:00,
2013-09-17 02:12:00,42.0,39.0,30.56,East,79,0.0,0.0,89,0.00,,,0.01,,2013-09-17 06:12:00,
2013-09-17 02:22:00,42.0,39.0,30.57,East,79,0.0,0.0,89,0.00,,,0.01,,2013-09-17 06:22:00,
2013-09-17 02:42:00,42.0,39.0,30.57,East,79,0.0,0.0,88,0.00,,,0.01,,2013-09-17 06:42:00,
2013-09-17 02:52:00,41.0,38.0,30.58,East,79,0.0,0.0,88,0.00,,,0.01,,2013-09-17 06:52:00,
2013-09-17 03:11:00,41.0,38.0,30.58,East,79,0.0,0.0,89,0.00,,,0.01,,2013-09-17 07:11:00,
2013-09-17 03:23:00,40.0,38.0,30.58,East,79,0.0,0.0,91,0.00,,,0.01,,2013-09-17 07:23:00,
2013-09-17 03:52:00,39.0,37.0,30.58,East,79,0.0,0.0,92,0.00,,,0.01,,2013-09-17 07:52:00,
2013-09-17 04:12:00,39.0,37.0,30.58,East,79,0.0,0.0,93,0.00,,,0.01,,2013-09-17 08:12:00,
2013-09-17 04:22:00,39.0,37.0,30.59,East,79,0.0,0.0,93,0.00,,,0.01,,2013-09-17 08:22:00,
2013-09-17 04:52:00,38.0,37.0,30.59,East,79,0.0,0.0,95,0.00,,,0.01,,2013-09-17 08:52:00,
2013-09-17 05:12:00,38.0,37.0,30.59,East,79,0.0,0.0,95,0.00,,,0.01,,2013-09-17 09:12:00,
2013-09-17 05:22:00,37.0,36.0,30.60,East,79,0.0,0.0,95,0.00,,,0.01,,2013-09-17 09:22:00,
2013-09-17 05:42:00,37.0,36.0,30.60,East,79,0.0,0.0,96,0.00,,,0.01,,2013-09-17 09:42:00,
2013-09-17 05:53:00,37.0,36.0,30.61,East,79,0.0,0.0,96,0.00,,,0.01,,2013-09-17 09:53:00,
2013-09-17 06:12:00,37.0,36.0,30.61,East,79,0.0,0.0,96,0.00,,,0.01,,2013-09-17 10:12:00,
2013-09-17 06:23:00,37.0,36.0,30.62,East,79,0.0,0.0,96,0.00,,,0.01,,2013-09-17 10:23:00,
2013-09-17 06:42:00,37.0,36.0,30.63,East,79,0.0,0.0,96,0.00,,,0.01,,2013-09-17 10:42:00,
2013-09-17 06:53:00,37.0,36.0,30.64,East,79,0.0,0.0,96,0.00,,,0.01,,2013-09-17 10:53:00,
2013-09-17 07:11:00,37.0,36.0,30.64,East,79,0.0,0.0,97,0.00,,,0.01,,2013-09-17 11:11:00,
2013-09-17 07:22:00,37.0,36.0,30.65,East,79,0.0,0.0,97,0.00,,,0.01,,2013-09-17 11:22:00,
2013-09-17 07:52:00,38.0,37.0,30.67,East,79,0.0,0.0,97,0.00,,,0.01,,2013-09-17 11:52:00,
2013-09-17 08:12:00,38.0,37.0,30.67,East,79,0.0,0.0,97,0.00,,,0.01,,2013-09-17 12:12:00,
2013-09-17 08:22:00,40.0,39.0,30.67,East,79,0.0,0.0,97,0.00,,,0.01,,2013-09-17 12:22:00,
2013-09-17 08:42:00,41.0,40.0,30.67,East,79,0.0,0.0,96,0.00,,,0.01,,2013-09-17 12:42:00,
2013-09-17 08:52:00,43.0,41.0,30.68,SW,215,0.0,2.0,94,0.00,,,0.01,,2013-09-17 12:52:00,
2013-09-17 09:11:00,44.0,42.0,30.68,South,172,0.0,1.0,91,0.00,,,0.01,,2013-09-17 13:11:00,
2013-09-17 09:22:00,47.0,43.0,30.69,WNW,302,0.0,1.0,86,0.00,,,0.01,,2013-09-17 13:22:00,
2013-09-17 09:52:00,49.0,43.0,30.69,East,82,0.0,2.0,81,0.00,,,0.01,,2013-09-17 13:52:00,
2013-09-17 10:11:00,50.0,45.0,30.69,WNW,297,1.0,3.0,82,0.00,,,0.01,,2013-09-17 14:11:00,
2013-09-17 10:22:00,51.0,44.0,30.70,WSW,243,0.0,3.0,77,0.00,,,0.00,,2013-09-17 14:22:00,
2013-09-17 10:52:00,53.0,44.0,30.70,SE,132,0.0,5.0,71,0.00,,,0.00,,2013-09-17 14:52:00,
2013-09-17 11:11:00,54.0,43.0,30.70,ENE,58,0.0,2.0,67,0.00,,,0.00,,2013-09-17 15:11:00,
2013-09-17 11:22:00,55.0,44.0,30.70,ENE,72,1.0,3.0,67,0.00,,,0.00,,2013-09-17 15:22:00,
2013-09-17 11:44:00,56.0,43.0,30.70,ENE,70,0.0,5.0,61,0.00,,,0.00,,2013-09-17 15:44:00,
2013-09-17 11:53:00,57.0,45.0,30.70,WSW,256,1.0,3.0,63,0.00,,,0.00,,2013-09-17 15:53:00,
2013-09-17 12:13:00,58.0,44.0,30.69,WNW,300,1.0,7.0,60,0.00,,,0.00,,2013-09-17 16:13:00,
2013-09-17 12:23:00,58.0,43.0,30.69,West,270,1.0,2.0,58,0.00,,,0.00,,2013-09-17 16:23:00,
2013-09-17 12:54:00,59.0,43.0,30.68,WSW,257,1.0,2.0,56,0.00,,,0.00,,2013-09-17 16:54:00,
2013-09-17 13:12:00,59.0,43.0,30.68,WNW,297,1.0,3.0,55,0.00,,,0.00,,2013-09-17 17:12:00,
2013-09-17 13:24:00,60.0,43.0,30.67,ENE,78,2.0,3.0,54,0.00,,,0.00,,2013-09-17 17:24:00,
2013-09-17 13:43:00,60.0,45.0,30.67,NNW,327,0.0,3.0,57,0.00,,,0.00,,2013-09-17 17:43:00,
2013-09-17 13:53:00,62.0,45.0,30.66,ENE,78,0.0,3.0,53,0.00,,,0.00,,2013-09-17 17:53:00,
2013-09-17 14:12:00,62.0,43.0,30.65,ENE,77,2.0,5.0,50,0.00,,,0.00,,2013-09-17 18:12:00,
2013-09-17 14:22:00,62.0,46.0,30.64,WNW,284,0.0,2.0,55,0.00,,,0.00,,2013-09-17 18:22:00,
2013-09-17 14:42:00,62.0,46.0,30.64,WSW,243,1.0,2.0,56,0.00,,,0.00,,2013-09-17 18:42:00,
2013-09-17 14:52:00,64.0,44.0,30.63,West,264,0.0,1.0,49,0.00,,,0.00,,2013-09-17 18:52:00,
2013-09-17 15:12:00,64.0,45.0,30.63,WSW,251,1.0,3.0,51,0.00,,,0.00,,2013-09-17 19:12:00,
2013-09-17 15:22:00,64.0,44.0,30.62,WSW,246,1.0,2.0,49,0.00,,,0.00,,2013-09-17 19:22:00,
2013-09-17 15:52:00,63.0,45.0,30.61,WSW,243,0.0,1.0,51,0.00,,,0.00,,2013-09-17 19:52:00,
2013-09-17 16:11:00,63.0,48.0,30.61,West,263,0.0,2.0,58,0.00,,,0.00,,2013-09-17 20:11:00,
2013-09-17 16:22:00,62.0,47.0,30.61,East,93,0.0,1.0,59,0.00,,,0.00,,2013-09-17 20:22:00,
2013-09-17 16:52:00,60.0,46.0,30.60,WSW,243,0.0,1.0,60,0.00,,,0.00,,2013-09-17 20:52:00,
2013-09-17 17:12:00,60.0,47.0,30.60,SW,235,0.0,2.0,61,0.00,,,0.00,,2013-09-17 21:12:00,
2013-09-17 17:22:00,60.0,48.0,30.60,SW,235,0.0,0.0,64,0.00,,,0.00,,2013-09-17 21:22:00,
2013-09-17 17:54:00,58.0,49.0,30.59,NW,316,0.0,1.0,71,0.00,,,0.00,,2013-09-17 21:54:00,
2013-09-17 18:13:00,58.0,49.0,30.59,NNW,328,0.0,0.0,72,0.00,,,0.00,,2013-09-17 22:13:00,
2013-09-17 18:24:00,57.0,48.0,30.59,NNW,328,0.0,0.0,71,0.00,,,0.00,,2013-09-17 22:24:00,
2013-09-17 18:53:00,55.0,48.0,30.58,NNW,328,0.0,0.0,77,0.00,,,0.00,,2013-09-17 22:53:00,
2013-09-17 19:22:00,53.0,48.0,30.59,NNW,327,0.0,0.0,83,0.00,,,0.00,,2013-09-17 23:22:00,
2013-09-17 19:52:00,51.0,48.0,30.59,NNW,328,0.0,0.0,88,0.00,,,0.00,,2013-09-17 23:52:00,
2013-09-17 20:11:00,50.0,47.0,30.59,NNW,328,0.0,0.0,89,0.00,,,0.00,,2013-09-18 00:11:00,
2013-09-17 20:22:00,49.0,46.0,30.59,NNW,328,0.0,0.0,91,0.00,,,0.00,,2013-09-18 00:22:00,
2013-09-17 20:42:00,49.0,47.0,30.59,NNW,328,0.0,0.0,92,0.00,,,0.00,,2013-09-18 00:42:00,
2013-09-17 20:52:00,48.0,46.0,30.59,NNW,327,0.0,0.0,93,0.00,,,0.00,,2013-09-18 00:52:00,
2013-09-17 21:11:00,48.0,46.0,30.60,NNW,328,0.0,0.0,94,0.00,,,0.00,,2013-09-18 01:11:00,
2013-09-17 21:22:00,47.0,45.0,30.59,NNW,328,0.0,0.0,94,0.00,,,0.00,,2013-09-18 01:22:00,
2013-09-17 21:42:00,47.0,45.0,30.59,NNW,328,0.0,0.0,94,0.00,,,0.00,,2013-09-18 01:42:00,
2013-09-17 21:53:00,47.0,46.0,30.59,NNW,328,0.0,0.0,95,0.00,,,0.00,,2013-09-18 01:53:00,
2013-09-17 22:11:00,46.0,45.0,30.59,NNW,328,0.0,0.0,95,0.00,,,0.00,,2013-09-18 02:11:00,
2013-09-17 22:22:00,46.0,45.0,30.59,NNW,328,0.0,0.0,95,0.00,,,0.00,,2013-09-18 02:22:00,
2013-09-17 22:43:00,46.0,45.0,30.59,NNW,328,0.0,0.0,95,0.00,,,0.00,,2013-09-18 02:43:00,
2013-09-17 22:52:00,45.0,44.0,30.59,NNW,328,0.0,0.0,96,0.00,,,0.00,,2013-09-18 02:52:00,
2013-09-17 23:12:00,45.0,44.0,30.59,NNW,328,0.0,0.0,96,0.00,,,0.00,,2013-09-18 03:12:00,
2013-09-17 23:23:00,45.0,44.0,30.59,NNW,328,0.0,0.0,96,0.00,,,0.00,,2013-09-18 03:23:00,
2013-09-17 23:44:00,45.0,44.0,30.59,NNW,327,0.0,0.0,96,0.00,,,0.00,,2013-09-18 03:44:00,
2013-09-17 23:55:00,45.0,44.0,30.59,NNW,328,0.0,0.0,97,0.00,,,0.00,,2013-09-18 03:55:00,